Location: Hermaringen
(48.5952°N, 10.2585°E)
Time: 09:24:58
(UTC+00:00)

Vanguard 3 - Visible Passes

Search period start: 17 February 2026 00:00
Search period end: 27 February 2026 00:00
Orbit: 507 x 3205 km, 33.3° (Epoch: 16 February)

Date Brightness Start Highest point End Pass type
(mag) Time Alt. Az. Time Alt. Az. Time Alt. Az.
17 Feb 9.1 17:15:42 10° SW 17:20:17 18° S 17:23:45 10° SE visible
18 Feb 9.1 18:05:28 10° SW 18:09:13 16° SSW 18:12:12 10° SSE visible
19 Feb 9.2 18:56:21 10° SW 18:57:58 11° SSW 18:59:25 10° S visible
20 Feb 9.2 17:32:01 10° WSW 17:37:10 19° SSW 17:40:57 10° SSE visible
21 Feb 9.4 18:22:40 10° SW 18:25:54 14° SSW 18:28:32 10° S visible
23 Feb 9.5 17:48:59 10° WSW 17:53:45 17° SSW 17:57:23 10° S visible
26 Feb 10.1 18:07:14 10° WSW 18:09:57 12° SW 18:12:17 10° SSW visible
